Oklahoma City, OK

6:17 PM CST on December 03, 2016 (GMT -0600)
Will Rogers World

Weather History for KOKC - April, 2013

Change the Weather History Date:

Wednesday, April 3, 2013

  Actual Average Record
Temperature  
Mean Temperature 39 °F 57 °F  
Max Temperature 41 °F 69 °F 92 °F (1893)
Min Temperature 37 °F 46 °F 21 °F (1975)
Degree Days  
Heating Degree Days 26 9  
Month to date heating degree days 58 27  
Since 1 July heating degree days 3103 3186  
Cooling Degree Days 0 1  
Month to date cooling degree days 0 3  
Year to date cooling degree days 4 16  
Moisture  
Dew Point 36 °F    
Average Humidity 93    
Maximum Humidity 100    
Minimum Humidity 85    
Precipitation  
Precipitation 1.35 in 0.09 in 1.37 in (1919)
Month to date precipitation 2.75 0.26  
Year to date precipitation 7.70 6.29  
Snow  
Snow 0.00 in 0.00 in T in (1964)
Month to date snowfall 0.0 0.0  
Since 1 July snowfall 7.7 7.6  
Snow Depth -    
Sea Level Pressure  
Sea Level Pressure 30.18 in    
Wind  
Wind Speed 13 mph (NE)    
Max Wind Speed 20 mph    
Max Gust Speed 24 mph    
Visibility 4 miles    
Events Rain , Thunderstorm    
T = Trace of Precipitation, MM = Missing Value Source: NWS Daily Summary

Daily Weather History Graph

Daily Weather History Graph

Search for Another Location

Airport or City:

Trip Planner

Search our weather history database for the weather conditions in past years. The results will help you decide how hot, cold, wet, or windy it might be!

Date:

Astronomy

Apr. 03, 2013 Rise Set
Actual Time 7:13 AM CDT 7:53 PM CDT
Civil Twilight 6:48 AM CDT 8:19 PM CDT
Nautical Twilight 6:17 AM CDT 8:49 PM CDT
Astronomical Twilight 5:46 AM CDT 9:20 PM CDT
Moon 2:42 AM CDT (4/3) 1:20 PM CDT (4/3)
Length of Visible Light 13h 31m
Length of Day
12h 39m
Last Quarter, 44% of the Moon is Illuminated
Apr 3
Last Quarter
Apr 10
New
Apr 18
First Quarter
Apr 25
Full
May 2
Last Quarter

Hourly Weather History & Observations

Time (CDT) Temp. Windchill Dew Point Humidity Pressure Visibility Wind Dir Wind Speed Gust Speed Precip Events Conditions
12:16 AM 39.2 °F 30.8 °F 37.4 °F 93% 30.12 in 8.0 mi ENE 15.0 mph 19.6 mph 0.01 in Rain , Thunderstorm Light Thunderstorms and Rain
12:52 AM 41.0 °F 34.7 °F 37.9 °F 89% 30.14 in 6.0 mi NNE 10.4 mph - 0.01 in Rain , Thunderstorm Light Thunderstorms and Rain
1:11 AM 39.2 °F 31.2 °F 37.4 °F 93% 30.12 in 2.5 mi NE 13.8 mph - 0.02 in Rain , Thunderstorm Light Thunderstorms and Rain
1:36 AM 39.2 °F 30.8 °F 37.4 °F 93% 30.11 in 2.5 mi NE 15.0 mph - 0.02 in Rain Light Rain
1:52 AM 39.9 °F 31.4 °F 37.9 °F 93% 30.13 in 3.0 mi NE 16.1 mph - 0.03 in Rain Light Rain
2:24 AM 41.0 °F 34.7 °F 39.2 °F 93% 30.11 in 3.0 mi NNE 10.4 mph - 0.00 in Thunderstorm Overcast
2:52 AM 41.0 °F 33.1 °F 39.0 °F 93% 30.12 in 3.0 mi NE 15.0 mph - 0.01 in Rain , Thunderstorm Thunderstorms and Rain
3:05 AM 39.2 °F 32.0 °F 37.4 °F 93% 30.11 in 2.0 mi NNE 11.5 mph - 0.06 in Rain , Thunderstorm Heavy Thunderstorms and Rain
3:19 AM 39.2 °F 33.0 °F 37.4 °F 93% 30.12 in 4.0 mi NNE 9.2 mph - 0.10 in Rain , Thunderstorm Light Thunderstorms and Rain
3:33 AM 39.2 °F 33.0 °F 37.4 °F 93% 30.12 in 5.0 mi NNE 9.2 mph - 0.11 in Rain Light Rain
3:52 AM 39.9 °F 33.4 °F 37.9 °F 93% 30.14 in 7.0 mi NNE 10.4 mph - 0.12 in Rain Light Rain
4:52 AM 39.9 °F 33.9 °F 37.0 °F 89% 30.14 in 5.0 mi NNE 9.2 mph - 0.03 in Rain Light Rain
5:52 AM 39.0 °F 30.6 °F 37.0 °F 93% 30.14 in 10.0 mi NE 15.0 mph - 0.01 in   Overcast
6:52 AM 39.0 °F 32.3 °F 36.0 °F 89% 30.15 in 10.0 mi NE 10.4 mph - N/A   Overcast
7:52 AM 37.9 °F 28.9 °F 36.0 °F 93% 30.17 in 7.0 mi ENE 16.1 mph - N/A   Overcast
8:52 AM 37.9 °F 30.5 °F 36.0 °F 93% 30.20 in 9.0 mi ENE 11.5 mph - N/A   Overcast
9:34 AM 37.4 °F 28.5 °F 35.6 °F 93% 30.19 in 2.5 mi NE 15.0 mph - 0.00 in Rain Light Rain
9:52 AM 37.9 °F 30.0 °F 35.1 °F 89% 30.22 in 2.0 mi NE 12.7 mph - 0.00 in Rain Light Rain
9:59 AM 37.4 °F 28.9 °F 35.6 °F 93% 30.19 in 1.5 mi NE 13.8 mph - 0.00 in Rain Light Rain
10:11 AM 37.4 °F 29.3 °F 35.6 °F 93% 30.20 in 1.2 mi NE 12.7 mph - 0.01 in Rain Light Rain
10:42 AM 37.4 °F 29.3 °F 35.6 °F 93% 30.20 in 2.0 mi ENE 12.7 mph - 0.06 in Rain Rain
10:52 AM 37.0 °F 27.7 °F 34.0 °F 89% 30.22 in 2.0 mi ENE 16.1 mph - 0.09 in Rain Rain
11:14 AM 37.4 °F 29.8 °F 35.6 °F 93% 30.21 in 4.0 mi ENE 11.5 mph - 0.02 in Rain Light Rain
11:29 AM 37.4 °F 29.8 °F 35.6 °F 93% 30.20 in 4.0 mi ENE 11.5 mph - 0.02 in Rain Light Rain
11:48 AM 37.4 °F 28.2 °F 33.8 °F 87% 30.19 in 3.0 mi ENE 16.1 mph - 0.05 in Rain Rain
11:52 AM 37.0 °F 28.5 °F 35.1 °F 93% 30.21 in 3.0 mi ENE 13.8 mph - 0.07 in Rain Rain
11:54 AM 37.4 °F 28.5 °F 35.6 °F 93% 30.19 in 2.0 mi ENE 15.0 mph - 0.01 in Rain Heavy Rain
12:52 PM 37.9 °F 29.6 °F 35.1 °F 89% 30.21 in 4.0 mi NE 13.8 mph 19.6 mph 0.19 in Rain Light Rain
1:52 PM 37.9 °F 30.5 °F 34.0 °F 86% 30.21 in 6.0 mi NE 11.5 mph - 0.01 in Rain Light Rain
2:10 PM 37.4 °F 29.8 °F 35.6 °F 93% 30.19 in 1.8 mi NE 11.5 mph - 0.00 in Rain Light Rain
2:31 PM 37.4 °F 29.3 °F 35.6 °F 93% 30.18 in 2.0 mi NE 12.7 mph - 0.00 in Rain Light Rain
2:52 PM 37.9 °F 29.6 °F 35.1 °F 89% 30.20 in 2.0 mi NE 13.8 mph - 0.00 in Rain Light Rain
3:19 PM 37.4 °F 29.8 °F 35.6 °F 93% 30.18 in 3.0 mi NE 11.5 mph - 0.00 in Rain Light Rain
3:26 PM 37.4 °F 28.5 °F 35.6 °F 93% 30.18 in 2.0 mi NE 15.0 mph 19.6 mph 0.00 in Rain Light Rain
3:52 PM 37.9 °F 29.2 °F 35.1 °F 89% 30.20 in 2.0 mi NE 15.0 mph - 0.00 in Rain Light Rain
4:10 PM 37.4 °F 28.9 °F 35.6 °F 93% 30.17 in 3.0 mi NE 13.8 mph - 0.01 in Rain Light Rain
4:26 PM 37.4 °F 28.5 °F 35.6 °F 93% 30.18 in 2.0 mi NE 15.0 mph - 0.02 in Rain Light Rain
4:52 PM 37.9 °F 29.6 °F 35.1 °F 89% 30.20 in 2.0 mi NE 13.8 mph - 0.05 in Rain Light Rain
5:03 PM 37.4 °F 28.9 °F 33.8 °F 87% 30.18 in 2.0 mi NE 13.8 mph - 0.00 in Rain Light Rain
5:16 PM 37.4 °F 29.3 °F 35.6 °F 93% 30.19 in 2.0 mi NE 12.7 mph - 0.01 in Rain Light Rain
5:21 PM 37.4 °F 27.8 °F 35.6 °F 93% 30.18 in 2.0 mi NE 17.3 mph - 0.02 in Rain Light Rain
5:30 PM 37.4 °F 28.2 °F 33.8 °F 87% 30.18 in 2.0 mi NE 16.1 mph - 0.02 in Rain Light Rain
5:52 PM 37.0 °F 28.1 °F 35.1 °F 93% 30.20 in 2.0 mi ENE 15.0 mph - 0.05 in Rain Rain
6:52 PM 37.0 °F 28.5 °F 35.1 °F 93% 30.19 in 2.0 mi ENE 13.8 mph - 0.11 in Rain Rain
7:52 PM 37.0 °F 28.5 °F 34.0 °F 89% 30.18 in 2.0 mi East 13.8 mph - 0.19 in Rain Rain
8:52 PM 37.0 °F 30.4 °F 35.1 °F 93% 30.18 in 2.0 mi ENE 9.2 mph - 0.16 in Rain Rain
9:52 PM 37.9 °F 31.5 °F 37.0 °F 97% 30.20 in 3.0 mi NNE 9.2 mph - 0.16 in Rain Rain
10:52 PM 37.9 °F 32.7 °F 37.0 °F 97% 30.23 in 3.0 mi NW 6.9 mph - 0.07 in Rain Light Rain
11:52 PM 39.0 °F 33.4 °F 37.9 °F 96% 30.23 in 6.0 mi NNW 8.1 mph - 0.01 in   Overcast